Yellow Mule RAWS (NWS)

Jump to table bottom
Date/Time Wind Direction Wind Speed knots Wind Gust knots RH % Accumulated Precip Inches Air Temp Fahrenheit
2022-12-04 12:04 SSE 7 10 87 13.72 22
2022-12-04 11:04 S 8 12 83 13.72 21
2022-12-04 10:04 SSE 9 11 76 13.72 20
2022-12-04 09:04 SSE 8 11 75 13.72 17
2022-12-04 08:04 S 9 11 59 13.72 14
2022-12-04 07:04 SSE 8 11 50 13.72 17
2022-12-04 06:04 S 5 7 50 13.72 14
2022-12-04 05:04 S 5 9 44 13.72 15
2022-12-04 04:04 SSE 8 11 55 13.72 15
2022-12-04 03:04 S 4 9 37 13.72 17
2022-12-04 02:04 S 6 8 58 13.72 13
2022-12-04 01:04 SSE 7 10 62 13.72 13
2022-12-04 00:04 S 8 10 60 13.72 12
2022-12-03 23:04 S 7 10 47 13.72 14
2022-12-03 22:04 SSW 9 16 47 13.72 13
2022-12-03 21:04 SSW 13 17 33 13.72 18
2022-12-03 20:04 SSW 4 13 43 13.72 15
2022-12-03 19:04 SSW 7 11 43 13.72 15
2022-12-03 18:04 SSW 10 17 40 13.72 16
2022-12-03 17:04 SSW 7 13 50 13.72 15
2022-12-03 16:04 S 10 17 51 13.72 18
2022-12-03 15:04 S 11 17 57 13.72 18
2022-12-03 14:04 S 10 19 64 13.72 17
2022-12-03 13:04 SSW 14 20 59 13.72 19
2022-12-03 12:04 S 12 23 68 13.72 15
2022-12-03 11:04 S 13 20 77 13.72 11
2022-12-03 10:04 SSW 12 20 77 13.72 9
2022-12-03 09:04 S 10 17 81 13.72 3
2022-12-03 08:04 S 8 13 80 13.72 0
2022-12-03 07:04 S 9 12 81 13.72 1
2022-12-03 06:04 S 10 12 80 13.72 -2
2022-12-03 05:04 S 10 11 79 13.72 -2
2022-12-03 04:04 S 9 11 79 13.72 -3
2022-12-03 03:04 SSE 9 12 79 13.72 -2
2022-12-03 02:04 S 9 11 79 13.72 -3
2022-12-03 01:04 S 10 11 78 13.72 -4
2022-12-03 00:04 SSE 7 10 79 13.72 -2
2022-12-02 23:04 SSE 6 14 80 13.72 -2
2022-12-02 22:04 SSE 8 13 80 13.72 0
2022-12-02 21:04 SSE 10 21 80 13.72 -1
2022-12-02 20:04 SSE 10 23 79 13.72 0
2022-12-02 19:04 S 11 20 79 13.72 0
2022-12-02 18:04 SSE 10 12 80 13.72 -1
2022-12-02 17:04 S 11 23 80 13.72 1
2022-12-02 16:04 S 13 26 79 13.72 4
2022-12-02 15:04 S 13 30 79 13.72 5
2022-12-02 14:04 S 16 27 80 13.72 5
2022-12-02 13:04 SSW 15 27 79 13.72 4
2022-12-02 12:04 SSW 20 27 80 13.72 2
2022-12-02 11:04 SSW 15 24 79 13.72 4